Find Starlink 6288

NORAD ID: 56398 Int'l Des: 2023-061 Owner: SPXS Country: US Constellation: starlink operational
LEOCIRCULAR

現在のビュー

3D地球を読み込み中...

Starlink 6288について

説明を読み込み中...

次回通過

Passes for default location (London). Set your location on the main map for personalized predictions.

高度履歴

Loading altitude history...

軌道要素

1 56398U 23061AA 26150.21032022 -.00000210 00000-0 19071-5 0 9996
2 56398 43.0045 86.5242 0001269 276.6569 83.4138 15.27573811169345
Epoch: May 30, 2026 • Age: 13 hours

現在のステータス

高度 482.7 km
速度 7.63 km/s
衛星直下点 16.65°N, 82.37°E
打ち上げ日 May 4, 2023
運用期間 3 years
タイプ internet

技術仕様

分類 Payload
質量 305.00 kg
乾燥質量 290.00 kg
総質量 305.00 kg
長さ 0.20 m
直径 2.80 m
スパン 9.00 m
形状 Box + pan
製造者 SPXS
バスタイプ Starlink
フェーズステータス In Orbit
所有者/国 SPXS/US

Most Searched